Time,TemperatureF,DewpointF,PressureIn,WindDirection,WindDirectionDegrees,WindSpeedMPH,WindSpeedGustMPH,Humidity,HourlyPrecipIn,Conditions,Clouds,dailyrainin,SoftwareType,DateUTC
2013-02-17 00:05:00,40.5,34.5,30.22,SW,225,4.3,-999.0,79,-99.99,,,0.00,Acu-Link.com,2013-02-17 06:05:00,
2013-02-17 00:21:00,39.9,33.9,30.21,SE,135,4.7,-999.0,79,-99.99,,,0.00,Acu-Link.com,2013-02-17 06:21:00,
2013-02-17 00:36:00,39.6,34.2,30.21,ENE,67,2.7,-999.0,81,-99.99,,,0.00,Acu-Link.com,2013-02-17 06:36:00,
2013-02-17 00:51:00,39.2,34.2,30.20,South,180,2.7,-999.0,82,-99.99,,,0.00,Acu-Link.com,2013-02-17 06:51:00,
2013-02-17 01:06:00,38.5,33.8,30.21,NNE,22,3.1,-999.0,83,-99.99,,,0.00,Acu-Link.com,2013-02-17 07:06:00,
2013-02-17 01:21:00,38.1,33.4,30.20,South,180,4.7,-999.0,83,-99.99,,,0.00,Acu-Link.com,2013-02-17 07:21:00,
2013-02-17 01:37:00,38.3,33.0,30.20,SSE,157,4.3,-999.0,81,-99.99,,,0.00,Acu-Link.com,2013-02-17 07:37:00,
2013-02-17 01:52:00,38.8,33.2,30.19,SSW,202,5.1,-999.0,80,-99.99,,,0.00,Acu-Link.com,2013-02-17 07:52:00,
2013-02-17 02:07:00,39.2,32.3,30.19,South,180,3.8,-999.0,76,-99.99,,,0.00,Acu-Link.com,2013-02-17 08:07:00,
2013-02-17 02:22:00,38.8,31.9,30.19,West,270,3.1,-999.0,76,-99.99,,,0.00,Acu-Link.com,2013-02-17 08:22:00,
2013-02-17 02:37:00,38.7,32.1,30.17,South,180,3.8,-999.0,77,-99.99,,,0.00,Acu-Link.com,2013-02-17 08:37:00,
2013-02-17 02:53:00,38.5,31.6,30.17,SW,225,4.7,-999.0,76,-99.99,,,0.00,Acu-Link.com,2013-02-17 08:53:00,
2013-02-17 03:17:00,38.5,31.6,30.17,South,180,4.7,-999.0,76,-99.99,,,0.00,Acu-Link.com,2013-02-17 09:17:00,
2013-02-17 03:32:00,39.9,31.6,30.15,SSE,157,6.3,-999.0,72,-99.99,,,0.00,Acu-Link.com,2013-02-17 09:32:00,
2013-02-17 03:47:00,38.1,31.2,30.15,SE,135,2.7,-999.0,76,-99.99,,,0.00,Acu-Link.com,2013-02-17 09:47:00,
2013-02-17 04:03:00,38.1,31.6,30.15,SSE,157,4.3,-999.0,77,-99.99,,,0.00,Acu-Link.com,2013-02-17 10:03:00,
2013-02-17 04:18:00,38.7,31.8,30.14,SSW,202,4.7,-999.0,76,-99.99,,,0.00,Acu-Link.com,2013-02-17 10:18:00,
2013-02-17 04:33:00,37.2,31.6,30.14,SSW,202,3.1,-999.0,80,-99.99,,,0.00,Acu-Link.com,2013-02-17 10:33:00,
2013-02-17 04:48:00,37.6,32.3,30.15,ESE,112,4.3,-999.0,81,-99.99,,,0.00,Acu-Link.com,2013-02-17 10:48:00,
2013-02-17 05:03:00,38.1,32.8,30.14,SSE,157,5.8,-999.0,81,-99.99,,,0.00,Acu-Link.com,2013-02-17 11:03:00,
2013-02-17 05:19:00,37.9,32.6,30.14,South,180,2.7,-999.0,81,-99.99,,,0.00,Acu-Link.com,2013-02-17 11:19:00,
2013-02-17 05:34:00,36.9,32.2,30.15,SE,135,3.8,-999.0,83,-99.99,,,0.00,Acu-Link.com,2013-02-17 11:34:00,
2013-02-17 05:49:00,36.9,32.8,30.15,ESE,112,3.1,-999.0,85,-99.99,,,0.00,Acu-Link.com,2013-02-17 11:49:00,
2013-02-17 06:04:00,38.1,34.0,30.15,SSE,157,4.3,-999.0,85,-99.99,,,0.00,Acu-Link.com,2013-02-17 12:04:00,
2013-02-17 06:20:00,38.3,34.2,30.14,South,180,5.1,-999.0,85,-99.99,,,0.00,Acu-Link.com,2013-02-17 12:20:00,
2013-02-17 06:35:00,38.5,34.4,30.15,SSE,157,4.3,-999.0,85,-99.99,,,0.00,Acu-Link.com,2013-02-17 12:35:00,
2013-02-17 06:50:00,38.7,34.5,30.15,SE,135,4.7,-999.0,85,-99.99,,,0.00,Acu-Link.com,2013-02-17 12:50:00,
2013-02-17 07:05:00,39.0,34.9,30.15,SSE,157,4.3,-999.0,85,-99.99,,,0.00,Acu-Link.com,2013-02-17 13:05:00,
2013-02-17 07:20:00,38.3,34.2,30.15,SSE,157,4.7,-999.0,85,-99.99,,,0.00,Acu-Link.com,2013-02-17 13:20:00,
2013-02-17 07:36:00,38.8,34.4,30.15,SSE,157,3.8,-999.0,84,-99.99,,,0.00,Acu-Link.com,2013-02-17 13:36:00,
2013-02-17 07:51:00,39.6,35.1,30.16,SE,135,5.1,-999.0,84,-99.99,,,0.00,Acu-Link.com,2013-02-17 13:51:00,
2013-02-17 08:06:00,42.4,36.4,30.16,SSW,202,4.3,-999.0,79,-99.99,,,0.00,Acu-Link.com,2013-02-17 14:06:00,
2013-02-17 08:21:00,44.8,37.0,30.16,SSE,157,5.8,-999.0,74,-99.99,,,0.00,Acu-Link.com,2013-02-17 14:21:00,
2013-02-17 08:36:00,46.8,37.9,30.16,West,270,5.8,-999.0,71,-99.99,,,0.00,Acu-Link.com,2013-02-17 14:36:00,
2013-02-17 08:52:00,48.9,38.8,30.16,West,270,4.3,-999.0,68,-99.99,,,0.00,Acu-Link.com,2013-02-17 14:52:00,
2013-02-17 09:07:00,50.2,38.5,30.16,SE,135,7.8,-999.0,64,-99.99,,,0.00,Acu-Link.com,2013-02-17 15:07:00,
2013-02-17 09:22:00,52.3,39.3,30.16,SW,225,3.8,-999.0,61,-99.99,,,0.00,Acu-Link.com,2013-02-17 15:22:00,
2013-02-17 09:37:00,54.0,39.1,30.16,SSW,202,5.1,-999.0,57,-99.99,,,0.00,Acu-Link.com,2013-02-17 15:37:00,
2013-02-17 09:52:00,56.3,40.3,30.15,South,180,5.8,-999.0,55,-99.99,,,0.00,Acu-Link.com,2013-02-17 15:52:00,
2013-02-17 10:07:00,57.7,39.7,30.15,East,90,8.3,-999.0,51,-99.99,,,0.00,Acu-Link.com,2013-02-17 16:07:00,
2013-02-17 10:23:00,59.4,40.2,30.15,West,270,11.4,-999.0,49,-99.99,,,0.00,Acu-Link.com,2013-02-17 16:23:00,
2013-02-17 10:38:00,61.2,39.7,30.15,SW,225,4.7,-999.0,45,-99.99,,,0.00,Acu-Link.com,2013-02-17 16:38:00,
2013-02-17 10:53:00,62.1,39.3,30.14,WNW,292,13.0,-999.0,43,-99.99,,,0.00,Acu-Link.com,2013-02-17 16:53:00,
2013-02-17 11:08:00,63.3,38.6,30.14,SE,135,4.3,-999.0,40,-99.99,,,0.00,Acu-Link.com,2013-02-17 17:08:00,
2013-02-17 11:24:00,65.1,38.9,30.14,South,180,7.4,-999.0,38,-99.99,,,0.00,Acu-Link.com,2013-02-17 17:24:00,
2013-02-17 11:39:00,65.7,38.0,30.13,WNW,292,7.4,-999.0,36,-99.99,,,0.00,Acu-Link.com,2013-02-17 17:39:00,
2013-02-17 11:54:00,66.6,36.6,30.12,South,180,8.9,-999.0,33,-99.99,,,0.00,Acu-Link.com,2013-02-17 17:54:00,
2013-02-17 12:09:00,68.4,38.1,30.12,West,270,7.4,-999.0,33,-99.99,,,0.00,Acu-Link.com,2013-02-17 18:09:00,
2013-02-17 12:24:00,68.4,34.0,30.11,WSW,247,8.9,-999.0,28,-99.99,,,0.00,Acu-Link.com,2013-02-17 18:24:00,
2013-02-17 12:40:00,68.7,34.3,30.08,NNW,337,9.4,-999.0,28,-99.99,,,0.00,Acu-Link.com,2013-02-17 18:40:00,
2013-02-17 12:55:00,70.2,31.7,30.08,SSW,202,9.4,-999.0,24,-99.99,,,0.00,Acu-Link.com,2013-02-17 18:55:00,
2013-02-17 13:10:00,70.3,32.8,30.07,West,270,10.3,-999.0,25,-99.99,,,0.00,Acu-Link.com,2013-02-17 19:10:00,
2013-02-17 13:25:00,70.7,34.1,30.06,WSW,247,6.7,-999.0,26,-99.99,,,0.00,Acu-Link.com,2013-02-17 19:25:00,
2013-02-17 13:40:00,70.7,32.1,30.04,SW,225,13.0,-999.0,24,-99.99,,,0.00,Acu-Link.com,2013-02-17 19:40:00,
2013-02-17 13:56:00,70.9,30.1,30.04,SW,225,14.5,-999.0,22,-99.99,,,0.01,Acu-Link.com,2013-02-17 19:56:00,
2013-02-17 14:11:00,70.7,36.0,30.03,SSW,202,9.4,-999.0,28,-99.99,,,0.01,Acu-Link.com,2013-02-17 20:11:00,
2013-02-17 14:26:00,70.7,36.0,30.02,South,180,11.9,-999.0,28,-99.99,,,0.01,Acu-Link.com,2013-02-17 20:26:00,
2013-02-17 14:41:00,70.2,33.7,30.02,SSE,157,6.7,-999.0,26,-99.99,,,0.01,Acu-Link.com,2013-02-17 20:41:00,
2013-02-17 14:56:00,71.1,36.3,30.01,WNW,292,9.8,-999.0,28,-99.99,,,0.01,Acu-Link.com,2013-02-17 20:56:00,
2013-02-17 15:12:00,70.2,35.5,30.01,ESE,112,11.9,-999.0,28,-99.99,,,0.01,Acu-Link.com,2013-02-17 21:12:00,
2013-02-17 15:27:00,69.6,35.1,30.01,SSE,157,18.1,-999.0,28,-99.99,,,0.01,Acu-Link.com,2013-02-17 21:27:00,
2013-02-17 15:42:00,70.0,36.3,30.00,SSE,157,13.4,-999.0,29,-99.99,,,0.01,Acu-Link.com,2013-02-17 21:42:00,
2013-02-17 15:57:00,69.4,35.8,30.00,WSW,247,11.4,-999.0,29,-99.99,,,0.01,Acu-Link.com,2013-02-17 21:57:00,
2013-02-17 16:12:00,69.6,35.9,29.99,North,0,4.7,-999.0,29,-99.99,,,0.01,Acu-Link.com,2013-02-17 22:12:00,
2013-02-17 16:28:00,69.1,37.2,29.99,SW,225,11.0,-999.0,31,-99.99,,,0.01,Acu-Link.com,2013-02-17 22:28:00,
2013-02-17 16:43:00,68.9,37.0,29.98,West,270,6.7,-999.0,31,-99.99,,,0.01,Acu-Link.com,2013-02-17 22:43:00,
2013-02-17 16:58:00,68.2,37.2,29.98,SSE,157,9.8,-999.0,32,-99.99,,,0.01,Acu-Link.com,2013-02-17 22:58:00,
2013-02-17 17:13:00,68.0,37.0,29.98,South,180,8.9,-999.0,32,-99.99,,,0.01,Acu-Link.com,2013-02-17 23:13:00,
2013-02-17 17:29:00,67.6,36.7,29.98,South,180,8.9,-999.0,32,-99.99,,,0.01,Acu-Link.com,2013-02-17 23:29:00,
2013-02-17 17:44:00,66.4,37.2,29.97,South,180,8.9,-999.0,34,-99.99,,,0.01,Acu-Link.com,2013-02-17 23:44:00,
2013-02-17 17:59:00,65.1,38.2,64.25,NW,315,5.1,-999.0,37,-99.99,,,0.01,Acu-Link.com,2013-02-17 23:59:00,
2013-02-17 18:14:00,63.7,38.9,29.97,SSW,202,4.3,-999.0,40,-99.99,,,0.01,Acu-Link.com,2013-02-18 00:14:00,
2013-02-17 18:29:00,62.8,39.3,29.97,South,180,4.3,-999.0,42,-99.99,,,0.01,Acu-Link.com,2013-02-18 00:29:00,
2013-02-17 18:44:00,61.9,39.1,29.97,WSW,247,3.8,-999.0,43,-99.99,,,0.01,Acu-Link.com,2013-02-18 00:44:00,
2013-02-17 19:00:00,61.3,39.2,29.97,SW,225,7.8,-999.0,44,-99.99,,,0.01,Acu-Link.com,2013-02-18 01:00:00,
2013-02-17 19:15:00,61.0,39.5,29.97,South,180,5.8,-999.0,45,-99.99,,,0.01,Acu-Link.com,2013-02-18 01:15:00,
2013-02-17 19:30:00,60.6,39.7,29.97,SE,135,4.3,-999.0,46,-99.99,,,0.01,Acu-Link.com,2013-02-18 01:30:00,
2013-02-17 19:45:00,59.4,39.7,29.98,SSW,202,3.8,-999.0,48,-99.99,,,0.01,Acu-Link.com,2013-02-18 01:45:00,
2013-02-17 20:00:00,58.1,39.6,29.97,South,180,5.8,-999.0,50,-99.99,,,0.01,Acu-Link.com,2013-02-18 02:00:00,
2013-02-17 20:16:00,58.3,40.2,29.97,SSW,202,8.9,-999.0,51,-99.99,,,0.01,Acu-Link.com,2013-02-18 02:16:00,
2013-02-17 20:31:00,58.6,40.1,29.97,ESE,112,7.4,-999.0,50,-99.99,,,0.01,Acu-Link.com,2013-02-18 02:31:00,
2013-02-17 20:46:00,56.8,40.4,29.97,South,180,4.7,-999.0,54,-99.99,,,0.01,Acu-Link.com,2013-02-18 02:46:00,
2013-02-17 21:01:00,58.1,42.0,29.97,NE,45,11.4,-999.0,55,-99.99,,,0.01,Acu-Link.com,2013-02-18 03:01:00,
2013-02-17 21:17:00,59.9,44.2,29.98,SSE,157,14.1,-999.0,56,-99.99,,,0.01,Acu-Link.com,2013-02-18 03:17:00,
2013-02-17 21:32:00,59.5,44.7,29.98,NE,45,9.4,-999.0,58,-99.99,,,0.01,Acu-Link.com,2013-02-18 03:32:00,
2013-02-17 21:47:00,59.9,46.4,29.98,NNW,337,10.3,-999.0,61,-99.99,,,0.01,Acu-Link.com,2013-02-18 03:47:00,
2013-02-17 22:02:00,59.4,47.2,29.97,SSW,202,7.8,-999.0,64,-99.99,,,0.01,Acu-Link.com,2013-02-18 04:02:00,
2013-02-17 22:17:00,59.0,48.1,29.97,WSW,247,13.0,-999.0,67,-99.99,,,0.01,Acu-Link.com,2013-02-18 04:17:00,
2013-02-17 22:33:00,59.2,48.6,29.97,SSW,202,10.3,-999.0,68,-99.99,,,0.01,Acu-Link.com,2013-02-18 04:33:00,
2013-02-17 22:48:00,59.0,48.8,29.97,ENE,67,9.4,-999.0,69,-99.99,,,0.01,Acu-Link.com,2013-02-18 04:48:00,
2013-02-17 23:03:00,58.8,49.1,29.97,SSE,157,10.3,-999.0,70,-99.99,,,0.01,Acu-Link.com,2013-02-18 05:03:00,
2013-02-17 23:18:00,58.3,48.9,29.97,ENE,67,10.3,-999.0,71,-99.99,,,0.01,Acu-Link.com,2013-02-18 05:18:00,
2013-02-17 23:33:00,58.1,49.5,29.97,South,180,7.8,-999.0,73,-99.99,,,0.01,Acu-Link.com,2013-02-18 05:33:00,
2013-02-17 23:48:00,57.6,49.3,29.97,South,180,10.3,-999.0,74,-99.99,,,0.01,Acu-Link.com,2013-02-18 05:48:00,